• In Uzbekistan
  • List of Countries
  • For 7 days
  • Water Temperature
  • Satellite Maps
  • Weather Map
  • Weather Widgets
  • user-avatar
    Login

    Hourly Weather Cacapava

    Today, 19 June, Tuesday

    Time Temperature Precipitation Wind Pressure Humidity
    00:00 +16°C° 0 mm 1 mps 720 mmHg 97%
    01:00 +16°C° 0 mm 1 mps 719 mmHg 97%
    02:00 +16°C° 0 mm 1 mps 719 mmHg 97%
    03:00 +16°C° 0 mm 1 mps 719 mmHg 97%
    04:00 +16°C° 0 mm 1 mps 719 mmHg 97%
    05:00 +16°C° 0 mm 1 mps 719 mmHg 97%
    06:00 +16°C° 0 mm 1 mps 719 mmHg 97%
    07:00 +18°C° 0 mm 1 mps 719 mmHg 92%
    08:00 +19°C° 0 mm 1 mps 720 mmHg 88%
    09:00 +20°C° 0 mm 1 mps 720 mmHg 84%
    10:00 +22°C° 0 mm 1 mps 720 mmHg 78%
    11:00 +23°C° 0 mm 1 mps 720 mmHg 72%
    12:00 +24°C° 0 mm 2 mps 720 mmHg 65%
    13:00 +24°C° 0 mm 1 mps 720 mmHg 66%
    14:00 +24°C° 0 mm 1 mps 719 mmHg 66%
    15:00 +24°C° 0 mm 1 mps 719 mmHg 67%
    16:00 +23°C° 0 mm 1 mps 718 mmHg 74%
    17:00 +21°C° 0 mm 1 mps 718 mmHg 82%
    18:00 +19°C° 0 mm 1 mps 718 mmHg 90%
    19:00 +19°C° 0 mm 1 mps 718 mmHg 91%
    20:00 +18°C° 0 mm 1 mps 719 mmHg 93%
    21:00 +16°C° 0 mm 1 mps 719 mmHg 95%
    22:00 +16°C° 0 mm 1 mps 719 mmHg 95%
    23:00 +16°C° 0 mm 1 mps 719 mmHg 95%

    Tomorrow, 20 June, Wednesday

    Time Temperature Precipitation Wind Pressure Humidity
    00:00 +16°C° 0 mm 1 mps 719 mmHg 96%
    01:00 +16°C° 0 mm 1 mps 719 mmHg 96%
    02:00 +15°C° 0 mm 1 mps 718 mmHg 96%
    03:00 +15°C° 0 mm 1 mps 718 mmHg 96%
    04:00 +15°C° 0 mm 1 mps 718 mmHg 96%
    05:00 +15°C° 0 mm 1 mps 718 mmHg 96%
    06:00 +15°C° 0 mm 1 mps 718 mmHg 95%
    07:00 +16°C° 0 mm 1 mps 719 mmHg 89%
    08:00 +19°C° 0 mm 1 mps 719 mmHg 82%
    09:00 +21°C° 0 mm 1 mps 720 mmHg 76%
    10:00 +23°C° 0 mm 1 mps 720 mmHg 69%
    11:00 +25°C° 0 mm 1 mps 720 mmHg 62%
    12:00 +27°C° 0 mm 1 mps 720 mmHg 55%
    13:00 +27°C° 0 mm 1 mps 719 mmHg 56%
    14:00 +26°C° 0 mm 1 mps 718 mmHg 57%
    15:00 +26°C° 0 mm 1 mps 718 mmHg 58%
    16:00 +24°C° 0 mm 1 mps 718 mmHg 67%
    17:00 +20°C° 0 mm 0 mps 717 mmHg 77%
    18:00 +18°C° 0 mm 0 mps 717 mmHg 87%
    19:00 +17°C° 0 mm 0 mps 717 mmHg 88%
    20:00 +19°C° 0 mm 1 mps 717 mmHg 90%
    21:00 +18°C° 0 mm 1 mps 718 mmHg 92%
    22:00 +18°C° 0 mm 1 mps 717 mmHg 92%
    23:00 +18°C° 0 mm 1 mps 717 mmHg 93%

    Day after tomorrow, 21 June, Thursday

    Time Temperature Precipitation Wind Pressure Humidity
    00:00 +16°C° 0 mm 1 mps 717 mmHg 93%
    01:00 +16°C° 0 mm 1 mps 717 mmHg 93%
    02:00 +16°C° 0 mm 1 mps 716 mmHg 93%
    03:00 +15°C° 0 mm 1 mps 716 mmHg 93%
    04:00 +15°C° 0 mm 1 mps 716 mmHg 93%
    05:00 +15°C° 0 mm 1 mps 716 mmHg 93%
    06:00 +15°C° 0 mm 1 mps 716 mmHg 93%
    07:00 +18°C° 0 mm 1 mps 717 mmHg 86%
    08:00 +20°C° 0 mm 1 mps 718 mmHg 80%
    09:00 +22°C° 0 mm 1 mps 718 mmHg 73%
    10:00 +23°C° 0 mm 1 mps 718 mmHg 64%
    11:00 +25°C° 0 mm 1 mps 718 mmHg 56%
    12:00 +27°C° 0 mm 1 mps 718 mmHg 47%
    13:00 +27°C° 0 mm 1 mps 717 mmHg 47%
    14:00 +27°C° 0 mm 1 mps 717 mmHg 47%
    15:00 +27°C° 0 mm 1 mps 716 mmHg 46%
    16:00 +25°C° 0 mm 1 mps 716 mmHg 56%
    17:00 +23°C° 0 mm 1 mps 716 mmHg 66%
    18:00 +20°C° 0 mm 1 mps 716 mmHg 76%
    19:00 +20°C° 0 mm 1 mps 716 mmHg 78%
    20:00 +19°C° 0 mm 1 mps 716 mmHg 81%
    21:00 +18°C° 0 mm 1 mps 717 mmHg 84%
    22:00 +18°C° 0 mm 1 mps 717 mmHg 85%
    23:00 +18°C° 0 mm 1 mps 716 mmHg 87%

    22 June, Friday

    Time Temperature Precipitation Wind Pressure Humidity
    00:00 +16°C° 0 mm 1 mps 716 mmHg 88%
    01:00 +16°C° 0 mm 1 mps 716 mmHg 89%
    02:00 +16°C° 0 mm 1 mps 716 mmHg 90%
    03:00 +16°C° 0 mm 1 mps 715 mmHg 90%
    04:00 +16°C° 0 mm 1 mps 715 mmHg 90%
    05:00 +16°C° 0 mm 1 mps 715 mmHg 90%
    06:00 +15°C° 0 mm 1 mps 715 mmHg 90%
    07:00 +18°C° 0 mm 1 mps 716 mmHg 83%
    08:00 +20°C° 0 mm 1 mps 716 mmHg 76%
    09:00 +22°C° 0 mm 1 mps 717 mmHg 70%
    10:00 +24°C° 0 mm 1 mps 717 mmHg 63%
    11:00 +25°C° 0 mm 2 mps 717 mmHg 56%
    12:00 +27°C° 0 mm 2 mps 717 mmHg 49%
    13:00 +27°C° 0 mm 2 mps 716 mmHg 49%
    14:00 +27°C° 0 mm 2 mps 716 mmHg 50%
    15:00 +27°C° 0 mm 2 mps 715 mmHg 50%
    16:00 +24°C° 0 mm 1 mps 715 mmHg 60%
    17:00 +22°C° 0 mm 1 mps 715 mmHg 70%
    18:00 +18°C° 0 mm 0 mps 715 mmHg 80%
    19:00 +17°C° 0 mm 0 mps 715 mmHg 82%
    20:00 +17°C° 0 mm 0 mps 716 mmHg 84%
    21:00 +18°C° 0 mm 1 mps 716 mmHg 87%
    22:00 +18°C° 0 mm 1 mps 716 mmHg 87%
    23:00 +16°C° 0 mm 1 mps 716 mmHg 87%

    23 June, Saturday

    Time Temperature Precipitation Wind Pressure Humidity
    00:00 +16°C° 0 mm 1 mps 715 mmHg 88%
    01:00 +16°C° 0 mm 1 mps 715 mmHg 88%
    02:00 +16°C° 0 mm 1 mps 715 mmHg 89%
    03:00 +15°C° 0 mm 1 mps 715 mmHg 89%
    04:00 +15°C° 0 mm 1 mps 715 mmHg 89%
    05:00 +15°C° 0 mm 1 mps 715 mmHg 88%
    06:00 +15°C° 0 mm 1 mps 715 mmHg 88%
    07:00 +18°C° 0 mm 1 mps 715 mmHg 81%
    08:00 +20°C° 0 mm 1 mps 716 mmHg 74%
    09:00 +22°C° 0 mm 1 mps 716 mmHg 67%
    10:00 +24°C° 0 mm 1 mps 716 mmHg 60%
    11:00 +26°C° 0 mm 2 mps 716 mmHg 53%
    12:00 +28°C° 0 mm 2 mps 716 mmHg 46%
    13:00 +28°C° 0 mm 2 mps 715 mmHg 46%
    14:00 +28°C° 0 mm 2 mps 714 mmHg 46%
    15:00 +28°C° 0 mm 2 mps 714 mmHg 46%
    16:00 +25°C° 0 mm 2 mps 714 mmHg 55%
    17:00 +23°C° 0 mm 1 mps 714 mmHg 64%
    18:00 +21°C° 0 mm 1 mps 714 mmHg 73%
    19:00 +20°C° 0 mm 1 mps 714 mmHg 75%
    20:00 +20°C° 0 mm 1 mps 714 mmHg 78%
    21:00 +19°C° 0 mm 1 mps 714 mmHg 80%
    22:00 +19°C° 0 mm 1 mps 714 mmHg 82%
    23:00 +19°C° 0 mm 1 mps 714 mmHg 83%

    24 June, Sunday

    Time Temperature Precipitation Wind Pressure Humidity
    00:00 +18°C° 0 mm 1 mps 714 mmHg 85%
    01:00 +18°C° 0 mm 1 mps 714 mmHg 85%
    02:00 +18°C° 0 mm 1 mps 714 mmHg 86%
    03:00 +18°C° 0 mm 1 mps 714 mmHg 86%
    04:00 +18°C° 0 mm 1 mps 714 mmHg 87%
    05:00 +18°C° 0 mm 1 mps 714 mmHg 87%
    06:00 +16°C° 0 mm 1 mps 714 mmHg 88%
    07:00 +19°C° 0 mm 1 mps 715 mmHg 81%
    08:00 +21°C° 0 mm 1 mps 716 mmHg 75%
    09:00 +23°C° 0 mm 1 mps 716 mmHg 69%
    10:00 +24°C° 0 mm 2 mps 716 mmHg 64%
    11:00 +26°C° 0 mm 2 mps 716 mmHg 59%
    12:00 +27°C° 0 mm 2 mps 716 mmHg 53%
    13:00 +27°C° 0.1 mm 2 mps 716 mmHg 55%
    14:00 +27°C° 0.1 mm 2 mps 715 mmHg 56%
    15:00 +26°C° 0.1 mm 1 mps 715 mmHg 58%
    16:00 +25°C° 0.1 mm 1 mps 715 mmHg 65%
    17:00 +23°C° 0.1 mm 1 mps 715 mmHg 72%
    18:00 +19°C° 0.1 mm 0 mps 715 mmHg 80%
    19:00 +18°C° 0 mm 0 mps 715 mmHg 82%
    20:00 +17°C° 0 mm 0 mps 716 mmHg 85%
    21:00 +17°C° 0 mm 0 mps 716 mmHg 87%
    22:00 +16°C° 0 mm 0 mps 716 mmHg 88%
    23:00 +18°C° 0 mm 1 mps 716 mmHg 89%
    Show more